Regional Weather Roundup
Issued by NWS Charleston, SC

Current Version | Previous Version | Graphics & Text | Print | Product List | Glossary On
Versions: 1 2 3 4 5 6 7 8 9 10 11 12 13 14 15 16 17 18 19 20 21 22 23 24 25 26 27 28 29 30 31 32 33 34 35 36 37 38 39 40 41 42 43 44 45 46 47 48 49 50
000
ASUS42 KCHS 241510
RWRCHS
REGIONAL WEATHER ROUNDUP
NATIONAL WEATHER SERVICE CHARLESTON SC
1100 AM EDT THU APR 24 2014

NOTE: "FAIR" INDICATES FEW OR NO CLOUDS BELOW 12,000 FEET WITH NO
SIGNIFICANT WEATHER AND/OR OBSTRUCTIONS TO VISIBILITY.

NOT ALL STATIONS ARE QUALITY CONTROLLED BY THE NATIONAL
WEATHER SERVICE. USE DATA WITH CAUTION...ESPECIALLY
DEWPOINT OBSERVATIONS.

SCZ027-030-031-034>040-042>050-241600-
...SOUTH CAROLINA...

CITY           SKY/WX    TMP DP  RH WIND       PRES   REMARKS
N CHARLESTON   MOSUNNY   73  48  41 E13G18    30.08R
WATERFRONT PRK   N/A     70 N/A N/A NE15        N/A
FORT JOHNSON   NOT AVBL
MOUNT PLEASANT LGT RAIN  70  52  52 E6        30.08S
JOHNS ISLAND   MOSUNNY   72  54  53 E14       30.07S
PINOPOLIS        N/A     66  46  48 E8        30.01F
MONCKS CORNER  FAIR      70  50  49 E7        30.08F
SUMMERVILLE    NOT AVBL
BEAUFORT MCAS  MOSUNNY   76  57  51 SE13      30.05R
BEAUFORT ARPT  PTSUNNY   73  57  56 E14       30.05R
HILTON HEAD IS MOSUNNY   70  59  68 NE12G17   30.06
GEORGETOWN     NOT AVBL
WALTERBORO     SUNNY     72  50  46 E9        30.07S
ORANGEBURG     SUNNY     67  40  37 E8        30.09S
BARNWELL       FAIR      70  39  32 E9        30.08S
AIKEN          FAIR      68  45  42 E7        30.11S
MANNING        FAIR      68  43  40 NE8       30.10S
KINGSTREE      NOT AVBL
COLUMBIA       SUNNY     67  37  33 NE12      30.10S
SUMTER         SUNNY     66  38  36 NE13      30.10S
FLORENCE       SUNNY     66  35  31 E12       30.12S
MYRTLE BEACH   NOT AVBL
N MYRTLE BEACH SUNNY     67  39  35 NE8       30.11S

$$

GAZ063-065-086>088-099>101-113>116-118-119-134-136>141-150-241600-
...GEORGIA...

CITY           SKY/WX    TMP DP  RH WIND       PRES   REMARKS
SAVANNAH ARPT  SUNNY     76  63  64 E7        30.04R
HUNTER AAF     SUNNY     76  62  60 E5        30.02R
FORT STEWART   SUNNY     76  62  62 VRB1      30.01F
STATESBORO     NOT AVBL
SYLVANIA       SUNNY     73  58  59 E10       30.06S
CLAXTON        FAIR      72  61  68 CALM      30.04S
THOMSON        SUNNY     68  45  44 SE6       30.11S
AUGUSTA-BUSH   SUNNY     71  40  32 E9        30.07S
AUGUSTA-DANIEL SUNNY     70  38  31 E9        30.08R
SWAINSBORO     FAIR      70  55  60 E8        30.06R
VIDALIA        SUNNY     70  55  60 NE3       30.04R
ALMA           SUNNY     78  53  41 E3        30.02S
WAYCROSS       NOT AVBL
JESUP          FAIR      73  61  64 S3        30.03S
BRUNSWICK      CLOUDY    77  61  57 CALM      30.04R
SAINT SIMONS   CLOUDY    74  65  73 NE5       30.03R

$$

SCZ027-028-034-036>038-045-046-048>050-GAZ119-141-241600-
...LAKE AND SUPPLEMENTAL COASTAL OBSERVATIONS...

STATION/POSITION TIME  TEMP    WIND        PRES    WAVE   SWELL
                       AIR SEA DIR/SP/G            HT/PER HT/PER/DIR
                 (UTC) (F)     (DEG/KT/KT) (MB)    (FT/S) (FT/S/D)
UPR LAKE MARION  NOT AVBL
WINYAH BAY       1400   62      50/ 16     1019.0S
LAKE MURRAY      1400   61      70/  7/ 12 1019.0S
ACE BASIN NERRS  1400   71      60/  5     1017.0S
FORT PULASKI     1500   67 60   50/ 12/ 16 1017.8R
SAPELO ISLAND    1400   73      10/  4     1017.0R

$$

ANZ835-935-AMZ111-154-330-350-352-354-374-450-454-472-241600-
...C-MAN AND BUOY OBSERVATIONS...

STATION/POSITION TIME  TEMP    WIND        PRES    WAVE   SWELL
                       AIR SEA DIR/SP/G            HT/PER HT/PER/DIR
                 (UTC) (F)     (DEG/KT/KT) (MB)    (FT/S) (FT/S/D)
FOLLY BEACH CMAN 1400   65      50/ 16/ 20 1018.6R
BUOY 41004       1500   67 70   50/ 17/ 19 1017.6R   3/ 4   2/ 8
BUOY 41008       1500   69 69  110/  2/  2 1017.0R   1/ 8   2/ 90/ 8
5E ST. MARYS GA  1500      68                N/A     1/ 9
FRYING PAN BUOY  1500   63 67   50/ 17/ 21 1019.0R   5/ 5   2/ 70/ 8
BUOY 41025       NOT AVBL
CAPE LOOKOUT NC  1400   55      40/ 12/ 15 1020.2R
BUOY 41002       NOT AVBL
BUOY 41010       1500   74 76  110/  4/  6 1018.0R   2/ 8   2/ 50/ 8
BUOY 41012       NOT AVBL
ST AUGUSTINE FL  1500   68     120/  5/  6 1017.7R
CAPERS NEARSHORE NOT AVBL
FRIPP NEARSHORE  1400   67      80/ 12/ 14   N/A


$$



USA.gov is the U.S. government's official web portal to all federal, state and local government web resources and services.